TimeCST,TemperatureF,Dew PointF,Humidity,Sea Level PressureIn,VisibilityMPH,Wind Direction,Wind SpeedMPH,Gust SpeedMPH,PrecipitationIn,Events,Conditions,WindDirDegrees,DateUTC
12:15 AM,13.5,10.9,90,29.92,7.0,NE,9.2,-,N/A,,Overcast,50,2014-02-04 06:15:00
12:35 AM,13.1,10.9,91,29.92,3.0,NE,9.2,-,N/A,,Overcast,50,2014-02-04 06:35:00
12:55 AM,13.1,10.6,90,29.92,1.0,ENE,9.2,-,N/A,,Overcast,60,2014-02-04 06:55:00
1:15 AM,13.1,10.4,89,29.92,1.0,NE,8.1,-,N/A,,Overcast,50,2014-02-04 07:15:00
1:35 AM,13.1,10.4,89,29.92,0.5,ENE,8.1,-,N/A,Snow,Light Snow,60,2014-02-04 07:35:00
1:55 AM,13.1,10.4,89,29.92,0.5,ENE,6.9,-,N/A,Snow,Snow,60,2014-02-04 07:55:00
2:15 AM,13.1,10.4,89,29.93,1.0,ENE,8.1,-,N/A,Snow,Light Snow,60,2014-02-04 08:15:00
2:35 AM,13.1,10.0,88,29.92,1.5,NE,6.9,-,N/A,Snow,Light Snow,40,2014-02-04 08:35:00
2:55 AM,13.1,9.9,87,29.92,1.8,NE,8.1,-,N/A,Snow,Light Snow,50,2014-02-04 08:55:00
3:15 AM,12.9,9.7,87,29.92,3.0,NE,8.1,-,N/A,Snow,Light Snow,40,2014-02-04 09:15:00
3:35 AM,12.7,9.3,86,29.92,5.0,NE,9.2,-,N/A,,Overcast,50,2014-02-04 09:35:00
3:55 AM,12.6,9.0,85,29.91,4.0,NE,10.4,-,N/A,Snow,Light Snow,50,2014-02-04 09:55:00
4:15 AM,12.2,8.6,85,29.91,4.0,NE,9.2,-,N/A,Snow,Light Snow,40,2014-02-04 10:15:00
4:35 AM,12.2,8.6,85,29.91,4.0,NE,8.1,-,N/A,Snow,Light Snow,50,2014-02-04 10:35:00
4:55 AM,11.8,8.2,85,29.91,5.0,NE,9.2,-,N/A,,Overcast,50,2014-02-04 10:55:00
5:15 AM,11.8,8.2,85,29.92,1.8,ENE,9.2,-,N/A,Snow,Light Snow,60,2014-02-04 11:15:00
5:35 AM,11.5,7.9,85,29.92,2.5,NE,6.9,-,N/A,Snow,Light Snow,50,2014-02-04 11:35:00
5:55 AM,11.3,7.7,85,29.92,1.0,ENE,6.9,-,N/A,Snow,Snow,60,2014-02-04 11:55:00
6:15 AM,10.8,7.0,85,29.92,1.2,ENE,9.2,-,N/A,Snow,Light Snow,60,2014-02-04 12:15:00
6:35 AM,10.4,6.8,85,29.93,1.8,ENE,9.2,-,N/A,Snow,Light Snow,60,2014-02-04 12:35:00
6:55 AM,10.4,6.8,85,29.94,2.0,ENE,9.2,-,N/A,Snow,Light Snow,70,2014-02-04 12:55:00
7:15 AM,10.0,6.3,85,29.95,1.2,ENE,8.1,-,N/A,Snow,Snow,70,2014-02-04 13:15:00
7:35 AM,9.5,5.7,85,29.95,1.5,ENE,11.5,-,N/A,Snow,Light Snow,60,2014-02-04 13:35:00
7:55 AM,9.3,5.5,85,29.96,2.0,ENE,9.2,-,N/A,Snow,Light Snow,60,2014-02-04 13:55:00
8:15 AM,9.0,5.0,84,29.95,1.0,ENE,9.2,-,N/A,Snow,Light Snow,60,2014-02-04 14:15:00
8:35 AM,8.6,4.8,85,29.95,1.2,NE,12.7,-,N/A,Snow,Light Snow,50,2014-02-04 14:35:00
8:55 AM,8.6,4.8,85,29.96,1.2,NE,10.4,-,N/A,Snow,Light Snow,50,2014-02-04 14:55:00
9:15 AM,8.4,4.3,83,29.96,1.8,NE,11.5,-,N/A,Snow,Light Snow,50,2014-02-04 15:15:00
9:35 AM,8.1,4.1,84,29.96,0.8,NE,12.7,-,N/A,Snow,Light Snow,50,2014-02-04 15:35:00
9:55 AM,8.2,4.3,84,29.98,1.2,NE,12.7,-,N/A,Snow,Light Snow,50,2014-02-04 15:55:00
10:15 AM,8.1,3.9,83,29.98,2.0,NE,12.7,-,N/A,Snow,Light Snow,50,2014-02-04 16:15:00
10:35 AM,7.7,3.7,84,29.98,1.8,NE,13.8,-,N/A,Snow,Light Snow,50,2014-02-04 16:35:00
10:55 AM,7.7,3.4,83,29.98,1.8,NE,15.0,-,N/A,Snow,Light Snow,50,2014-02-04 16:55:00
11:15 AM,7.7,3.2,82,29.99,2.5,NE,16.1,-,N/A,,Haze,40,2014-02-04 17:15:00
11:35 AM,7.3,2.7,81,29.99,4.0,NE,16.1,-,N/A,,Haze,40,2014-02-04 17:35:00
11:55 AM,7.0,2.1,80,29.99,4.0,NE,18.4,-,N/A,,Haze,50,2014-02-04 17:55:00
12:15 PM,6.6,1.0,78,30.00,3.0,NE,16.1,-,N/A,,Haze,50,2014-02-04 18:15:00
12:35 PM,6.6,0.9,77,30.00,4.0,NE,15.0,-,N/A,,Haze,40,2014-02-04 18:35:00
12:55 PM,6.6,0.9,77,30.00,3.0,NE,15.0,-,N/A,,Haze,40,2014-02-04 18:55:00
1:15 PM,7.0,1.0,77,30.00,4.0,NE,15.0,-,N/A,,Haze,50,2014-02-04 19:15:00
1:35 PM,6.6,0.3,75,30.00,4.0,NE,17.3,-,N/A,,Haze,40,2014-02-04 19:35:00
1:55 PM,6.4,-0.0,75,30.00,4.0,NE,15.0,-,N/A,,Haze,40,2014-02-04 19:55:00
2:15 PM,5.9,-0.4,75,30.01,5.0,NE,13.8,-,N/A,,Haze,40,2014-02-04 20:15:00
2:35 PM,5.9,-0.2,76,30.01,1.8,NE,16.1,-,N/A,Snow,Light Snow,40,2014-02-04 20:35:00
2:55 PM,4.8,-1.8,74,30.02,4.0,NE,15.0,-,N/A,,Haze,40,2014-02-04 20:55:00
3:15 PM,4.5,-1.8,75,30.02,1.5,NNE,17.3,-,N/A,Snow,Light Snow,20,2014-02-04 21:15:00
3:35 PM,3.7,-2.4,76,30.03,1.0,NNE,17.3,-,N/A,Snow,Light Snow,20,2014-02-04 21:35:00
3:55 PM,3.2,-2.9,76,30.03,1.8,North,18.4,-,N/A,Snow,Light Snow,10,2014-02-04 21:55:00
4:15 PM,2.8,-3.3,76,30.05,1.8,NNE,15.0,-,N/A,Snow,Light Snow,30,2014-02-04 22:15:00
4:35 PM,2.3,-3.8,76,30.05,1.2,NNE,18.4,-,N/A,Snow,Light Snow,20,2014-02-04 22:35:00
4:55 PM,2.3,-3.6,76,30.07,2.0,NNE,15.0,-,N/A,Snow,Light Snow,30,2014-02-04 22:55:00
5:15 PM,1.9,-4.0,76,30.08,1.2,NNE,19.6,-,N/A,Snow,Light Snow,30,2014-02-04 23:15:00
5:35 PM,1.9,-4.0,76,30.09,2.0,NNE,16.1,-,N/A,Snow,Light Snow,20,2014-02-04 23:35:00
5:55 PM,1.4,-4.5,76,30.10,1.5,NNE,19.6,-,N/A,Snow,Light Snow,20,2014-02-04 23:55:00
6:15 PM,0.9,-4.9,77,30.12,1.2,NNE,15.0,-,N/A,Snow,Light Snow,20,2014-02-05 00:15:00
6:35 PM,-0.0,-5.8,77,30.13,2.0,NNE,16.1,-,N/A,Snow,Light Snow,30,2014-02-05 00:35:00
6:55 PM,-0.9,-6.3,78,30.15,2.5,North,16.1,-,N/A,Snow,Light Snow,10,2014-02-05 00:55:00
7:15 PM,-2.2,-8.0,76,30.15,7.0,NNE,15.0,-,N/A,,Mostly Cloudy,20,2014-02-05 01:15:00
7:35 PM,-3.3,-8.9,77,30.17,10.0,North,13.8,-,N/A,,Scattered Clouds,10,2014-02-05 01:35:00
7:55 PM,-3.3,-8.9,77,30.17,10.0,North,11.5,-,N/A,,Mostly Cloudy,10,2014-02-05 01:55:00
8:15 PM,-2.9,-8.1,78,30.18,10.0,North,10.4,-,N/A,,Overcast,10,2014-02-05 02:15:00
8:35 PM,-2.6,-8.1,77,30.18,4.0,NNE,13.8,-,N/A,Snow,Light Snow,20,2014-02-05 02:35:00
8:55 PM,-2.6,-8.0,78,30.19,2.0,North,12.7,-,N/A,Snow,Light Snow,10,2014-02-05 02:55:00
9:15 PM,-2.7,-8.1,78,30.21,4.0,North,9.2,-,N/A,Snow,Light Snow,360,2014-02-05 03:15:00
9:35 PM,-3.1,-8.5,78,30.22,7.0,North,9.2,-,N/A,,Overcast,350,2014-02-05 03:35:00
9:55 PM,-3.1,-8.5,78,30.22,3.0,North,12.7,-,N/A,Snow,Light Snow,10,2014-02-05 03:55:00
10:15 PM,-3.5,-8.9,78,30.23,4.0,North,9.2,-,N/A,,Haze,10,2014-02-05 04:15:00
10:35 PM,-3.6,-9.4,76,30.25,5.0,North,8.1,-,N/A,,Haze,360,2014-02-05 04:35:00
10:55 PM,-3.8,-9.4,77,30.25,2.5,North,8.1,-,N/A,Snow,Light Snow,10,2014-02-05 04:55:00
11:15 PM,-4.2,-9.8,77,30.25,4.0,North,8.1,-,N/A,,Haze,10,2014-02-05 05:15:00
11:35 PM,-4.2,-10.1,76,30.25,4.0,NNE,8.1,-,N/A,,Haze,20,2014-02-05 05:35:00
11:55 PM,-4.5,-10.1,77,30.26,7.0,North,5.8,-,N/A,,Overcast,10,2014-02-05 05:55:00